Location: Buchberg
(46.9333°N, 15.8500°E)
Time: 09:24:25
(UTC+00:00)

Meteor 2-4 Rocket - Pass Details

Date: 14 July 2020
Orbit: 799 x 908 km, 81.2° (Epoch: 07 August)

Event Time Altitude Azimuth Distance (km) Brightness Sun altitude
Rises 00:13:48 0° 351° (N) 3,549 8.0 -19.6°
Reaches altitude 10° 00:16:20 10° 354° (N) 2,603 7.2 -19.4°
Maximum altitude 00:22:14 63° 76° (ENE) 1,008 4.2 -19.1°
Enters shadow 00:26:30 19° 153° (SSE) 2,000 5.3 -18.9°
